Regional Weather Roundup
Issued by NWS

Home | Current Version | Previous Version | Text Only | Print | Product List | Glossary Off
Versions: 1 2 3 4 5 6 7 8 9 10 11 12 13 14 15 16 17 18 19 20 21 22 23 24 25 26 27 28 29 30 31 32 33 34 35 36 37 38 39 40 41 42 43 44 45 46 47 48 49 50

000
ASUS43 KTOP 011708
RWRKS

WEATHER ROUNDUP FOR KANSAS
NATIONAL WEATHER SERVICE GOODLAND KS
1200 PM CDT TUE SEP 01 2015

NOTE:  "FAIR" INDICATES FEW OR NO CLOUDS BELOW 12,000 FEET WITH NO
SIGNIFICANT WEATHER AND/OR OBSTRUCTIONS TO VISIBILITY.

KSZ001>006-013>018-027>032-041>047-011800-
NORTHWEST KANSAS

CITY           SKY/WX    TMP DP  RH WIND       PRES   REMARKS
GOODLAND       SUNNY     81  57  43 W6        30.03S
HAYS           SUNNY     88  61  40 S21G26    29.95F
HILL CITY      MOSUNNY   85  61  44 CALM      29.95F
RUSSELL        SUNNY     90  60  36 S21G28    29.93F
$$

KSZ061>065-074>080-084>089-011800-
SOUTHWEST KANSAS

CITY           SKY/WX    TMP DP  RH WIND       PRES   REMARKS
DODGE CITY     MOSUNNY   83  57  41 SW15      30.00S
ELKHART          N/A     84  58  41 S7          N/A
GARDEN CITY    PTSUNNY   79  59  50 VRB5      30.01S
GREAT BEND     SUNNY     90  61  37 S18G26    29.96S
LIBERAL        MOSUNNY   82  57  42 S6        30.03S
PRATT          SUNNY     88  57  35 MISG      30.00F
$$

KSZ066>073-081>083-090>101-011800-
SOUTHEAST KANSAS

CITY           SKY/WX    TMP DP  RH WIND       PRES   REMARKS
CHANUTE        SUNNY     84  68  58 S16       30.06S
COFFEYVILLE    SUNNY     85  69  58 S12       30.05F
HUTCHINSON     SUNNY     86  65  49 S15       30.00S
MEDICINE LODGE   N/A     90  62  39 S14G22    29.98F
NEWTON         SUNNY     86  64  48 S17       30.04S
PARSONS        SUNNY     84  71  65 VRB7      30.07S
WICHITA INTL   MOSUNNY   88  66  48 S16       30.00F
WICHITA JABRA  SUNNY     85  67  54 S14G21    30.01S
WICHITA MCCONL SUNNY     86  65  49 SE16      30.01F
WINFIELD       SUNNY     89  66  46 S16       30.03S
$$

KSZ007>012-019>026-033>040-048>060-102>105-011800-
NORTHEAST KANSAS

CITY           SKY/WX    TMP DP  RH WIND       PRES   REMARKS
CONCORDIA      MOSUNNY   87  66  49 S15G24    29.96F
EMPORIA        SUNNY     86  65  49 S16       30.02F
LAWRENCE       SUNNY     86  70  58 S8        30.02F
MANHATTAN      SUNNY     89  67  47 S12       29.98S
MARYSVILLE     MOSUNNY  N/A N/A N/A S8        29.97F
OLATHE IND     SUNNY     84  70  62 S12       30.05S
OLATHE EXE     SUNNY     82  69  64 SW8G18    30.04F
SALINA         MOSUNNY   91  64  40 S17G28    29.96F
TOPEKA BILLARD SUNNY     86  67  52 S13       30.01F
TOPEKA FORBES  SUNNY     86  68  54 SW14      30.02S
$$


USA.gov is the U.S. government's official web portal to all federal, state and local government web resources and services.